Regional Weather Roundup
Issued by NWS

Home | Current Version | Previous Version | Text Only | Print | Product List | Glossary On
Versions: 1 2 3 4 5 6 7 8 9 10 11 12 13 14 15 16 17 18 19 20 21 22 23 24 25 26 27 28 29 30 31 32 33 34 35 36 37 38 39 40 41 42 43 44 45 46 47 48 49 50
000
ASUS43 KLOT 200800
RWRIL

ILLINOIS REGIONAL WEATHER ROUNDUP
NATIONAL WEATHER SERVICE CHICAGO/ROMEOVILLE IL
300 AM CDT SAT SEP 20 2014

NOTE: "FAIR" INDICATES FEW OR NO CLOUDS BELOW 12,000 FEET WITH NO
SIGNIFICANT WEATHER AND/OR OBSTRUCTIONS TO VISIBILITY.

* THESE STATIONS ARE NOT UNDER NWS QUALITY CONTROL. THEY ALSO MAY NOT
  REPORT WEATHER SUCH AS PRECIPITATION OR FOG.

ILZ001-002-007-009-015-016-024-200900-
NORTHWEST ILLINOIS

CITY           SKY/WX    TMP DP  RH WIND       PRES   REMARKS
MOLINE         MOCLDY    64  57  78 VRB5      29.90F
STERLING*      MOCLDY    61  55  82 W3        29.91F
$$

ILZ003-004-008-010-011-017-018-200900-
NORTH CENTRAL ILLINOIS

CITY           SKY/WX    TMP DP  RH WIND       PRES   REMARKS
ROCKFORD       MOCLDY    61  54  77 S13       29.91F
FREEPORT*      CLOUDY    63  58  85 SW13G18   29.90F
ROCHELLE*      MOCLDY    59  54  82 S8        29.92F
$$

ILZ005-006-012>014-019>023-200900-
NORTHEAST ILLINOIS

CITY           SKY/WX    TMP DP  RH WIND       PRES   REMARKS
CHICAGO-OHARE  MOCLDY    63  51  65 SW13G22   29.92F
CHICAGO-MIDWAY MOCLDY    63  52  67 SW12      29.93F
AURORA         PTCLDY    55  50  83 SE3       29.95F
LANSING*       CLEAR     58  52  78 S10       29.96F
WAUKEGAN       PTCLDY    64  52  64 S18G28    29.87F
DUPAGE AIRPORT PTCLDY    59  51  75 S9        29.93F
WHEELING       PTCLDY    65  51  60 SW15G23   29.92F
NORTHERLY ISL    N/A     64  50  60 S10         N/A
$$

LMZ740>746-200900-
SOUTHERN LAKE MICHIGAN

STATION/POSITION SKY/WX   TEMP    WIND        PRES    VSBY  WAVE
                          AIR SEA DIR/SP/G                  HT/PER
                          (F)     (DEG/KT/KT) (MB)    (MI)  (FT/S)
SOUTHERN BUOY              65 64  200/ 21/ 25 1012.3R         4/ 5
WAUKEGAN HARBOR            66     220/ 17/ 21   N/A
HARRISON CRIB              65     200/ 19/ 23   N/A
BURNHAM HARBOR             64     190/ 10/ 14   N/A
CALUMET HARBOR             64     190/ 12/ 15 1013.0R
MICHIGAN CITY              61     170/ 12/ 15   N/A
MICHIGAN CITY 6N           64 65  200/ 16/ 19   N/A           2/ 3
ST. JOSEPH                 65 65  180/ 16/ 19   N/A           3/ 3
$$

ILZ025>027-034>036-040-047-049-050-058-095>099-200900-
WEST-CENTRAL ILLINOIS

CITY           SKY/WX    TMP DP  RH WIND       PRES   REMARKS
QUINCY         PTCLDY    62  58  86 S8        29.95S
GALESBURG*     MOCLDY    60  58  91 S7        29.93F
MACOMB*        PTCLDY    60  58  92 S5        29.97S
$$

ILZ028>032-037-038-041>044-048-051>054-059>061-200900-
CENTRAL ILLINOIS

CITY           SKY/WX    TMP DP  RH WIND       PRES   REMARKS
DECATUR        CLEAR     60  54  80 S8        30.00R
PEORIA         PTCLDY    61  54  77 S6        29.96S
SPRINGFIELD    CLEAR     63  56  78 S7        29.99R
TAYLORVILLE    NOT AVBL
$$

ILZ033-039-045-046-055>057-062-063-200900-
EAST-CENTRAL ILLINOIS

CITY           SKY/WX    TMP DP  RH WIND       PRES   REMARKS
CHAMPAIGN      CLEAR     58  53  84 S8        30.00R
MATTOON        CLEAR     59  54  83 S7        30.00R
$$

ILZ079-100>102-200900-
SOUTHWEST ILLINOIS

CITY           SKY/WX    TMP DP  RH WIND       PRES   REMARKS
BELLEVILLE     CLEAR     57  57 100 CALM      29.99S
CAHOKIA*       CLEAR     58  56  93 CALM      29.99S
SPARTA*        CLEAR     59  56  91 S3        30.01S
$$

ILZ064>066-069>071-074>076-080>082-084>086-088>090-092>094-200900-
SOUTH-CENTRAL ILLINOIS

CITY           SKY/WX    TMP DP  RH WIND       PRES   REMARKS
CARBONDALE     CLEAR     57  55  93 CALM      30.01S FOG
MT. VERNON     CLEAR     52  48  87 CALM      30.02S
$$

ILZ067-068-072-073-078-083-087-091-200900-
SOUTHEAST ILLINOIS

CITY           SKY/WX    TMP DP  RH WIND       PRES   REMARKS
LAWRENCEVILLE  CLEAR     54  52  93 CALM      30.02S FOG
ROBINSON*      CLEAR     53  52  99 CALM      30.02S
$$

ABBREVIATIONS USED IN REMARKS
   TC - TEMPERATURE IN CELSIUS
  WCI - WIND CHILL INDEX
   HX - HEAT INDEX
  VSB - VISIBILITY
$$



USA.gov is the U.S. government's official web portal to all federal, state and local government web resources and services.